Powrót do katalogu

QIANFAN-26

AktywnyŁącznośćPO
NORAD 61559·PAYLOAD·🇨🇳 China

Wystrzelony Oct 15, 2024 z Taiyuan Satellite Launch Center

Loading…

Następne Przeloty (najbliższe 24 godziny)

TLE

ŚwieżeSource: Space-Track

Epoka: Sep 14, 2026, 22:04 UTC

1 61559U 24185H   26257.91948347  .00000216  00000-0  20256-3 0  9990
2 61559  88.9827  49.9415 0003891 247.9319 112.1434 13.77943326106703

Śledź QIANFAN-26 w czasie rzeczywistym z AllMySat

Download on the App Store